EW1476 Weather Reports


Display with metric or nautical units.
time (UTC)temp
F
wind
direction
speed
MPH
gust
MPH
rain 1hr
in
rain 24hr
in
rain mn
in
humidity
%
barometer
mb
20260502223016 53 319 1.0 3.0 0.00 0.00 0.00 46 1012.5
20260502221516 53 311 1.0 4.0 0.00 0.00 0.00 45 1012.5
20260502220019 53 323 1.0 3.0 0.00 0.00 0.00 46 1012.5
20260502214508 53 310 2.0 5.0 0.00 0.00 0.00 44 1012.5
20260502213033 54 310 2.0 5.0 0.00 0.00 0.00 44 1012.5
20260502211521 54 314 1.0 5.0 0.00 0.00 0.00 44 1012.4
20260502210020 54 308 2.0 4.0 0.00 0.00 0.00 45 1012.2
20260502204520 54 316 1.0 4.0 0.00 0.00 0.00 43 1012.1
20260502203015 54 323 1.0 3.0 0.00 0.00 0.00 43 1012.0
20260502201533 54 300 2.0 4.0 0.00 0.00 0.00 42 1012.2
20260502200022 54 324 1.0 3.0 0.00 0.00 0.00 41 1012.3
20260502194522 54 328 0.0 2.0 0.00 0.00 0.00 45 1012.4
20260502193024 54 332 2.0 5.0 0.00 0.00 0.00 41 1012.7
20260502191522 54 316 2.0 5.0 0.00 0.00 0.00 41 1012.9
20260502190016 55 320 2.0 5.0 0.00 0.00 0.00 39 1013.0
20260502184528 54 309 1.0 3.0 0.00 0.00 0.00 42 1013.3
20260502183027 54 307 1.0 3.0 0.00 0.00 0.00 43 1013.4
20260502181524 53 323 3.0 4.0 0.00 0.00 0.00 42 1013.7
20260502163008 51 304 1.0 4.0 0.00 0.00 0.00 47 1014.5
20260502161526 52 312 1.0 3.0 0.00 0.00 0.00 49 1014.3
20260502151509 49 309 1.0 2.0 0.00 0.00 0.00 60 1015.0
20260502123017 45 338 1.0 3.0 0.00 0.00 0.00 71 1014.7
20260502121516 44 319 0.0 3.0 0.00 0.00 0.00 72 1014.8
20260502114510 44 313 2.0 4.0 0.00 0.00 0.00 74 1014.5
20260502113009 44 323 1.0 4.0 0.00 0.00 0.00 75 1014.4
20260502111506 44 333 0.0 5.0 0.00 0.00 0.00 75 1014.5
20260502110021 44 317 2.0 5.0 0.00 0.00 0.00 75 1014.2
20260502104526 45 309 2.0 4.0 0.00 0.00 0.00 74 1014.0
20260502103017 45 322 2.0 4.0 0.00 0.00 0.00 73 1014.0
20260502101512 45 323 1.0 3.0 0.00 0.00 0.00 72 1013.7
20260502091521 47 278 1.0 5.0 0.00 0.00 0.00 69 1013.3
20260502071518 50 330 2.0 5.0 0.00 0.00 0.00 72 1013.0
20260502070026 50 317 2.0 3.0 0.00 0.00 0.00 75 1013.0
20260502064528 50 317 0.0 1.0 0.00 0.00 0.00 76 1012.9
20260502063031 50 321 1.0 2.0 0.00 0.00 0.00 77 1012.9
20260502061524 50 321 0.0 1.0 0.00 0.00 0.00 77 1013.2
20260502060034 50 321 0.0 2.0 0.00 0.00 0.00 77 1013.5
20260502054533 50 321 1.0 2.0 0.00 0.00 0.00 79 1013.4
20260502053014 50 321 0.0 0.0 0.00 0.00 0.00 82 1013.3
20260502051512 51 321 0.0 0.0 0.00 0.00 0.00 82 1013.5
20260502050015 51 321 0.0 0.0 0.00 0.00 0.00 80 1013.4
20260502044505 51 321 0.0 0.0 0.00 0.00 0.00 80 1013.3
20260502043024 51 321 0.0 0.0 0.00 0.00 0.00 78 1013.0
20260502041543 51 321 0.0 2.0 0.00 0.00 0.00 79 1013.1
20260502040042 51 323 0.0 0.0 0.00 0.00 0.00 81 1013.1
20260502034516 52 323 0.0 1.0 0.00 0.00 0.00 78 1013.2
20260502033024 52 323 0.0 2.0 0.00 0.00 0.00 77 1013.0
20260502031508 52 314 0.0 0.0 0.00 0.00 0.00 77 1012.9
20260502030026 53 314 0.0 0.0 0.00 0.00 0.00 71 1012.5
20260502024521 53 314 0.0 0.0 0.00 0.00 0.00 70 1012.4
20260502023030 55 148 0.0 0.0 0.00 0.00 0.00 67 1012.5
20260502021518 55 148 0.0 0.0 0.00 0.00 0.00 61 1012.5
20260502020016 56 148 0.0 0.0 0.00 0.00 0.00 63 1012.4
20260502014511 56 148 0.0 0.0 0.00 0.00 0.00 58 1012.1
20260502013028 57 148 0.0 1.0 0.00 0.00 0.00 57 1011.5
20260502011524 58 220 0.0 0.0 0.00 0.00 0.00 54 1011.4
20260502010025 58 220 0.0 0.0 0.00 0.00 0.00 48 1011.3
20260502004520 58 220 0.0 0.0 0.00 0.00 0.00 49 1011.2
20260502003017 58 221 0.0 0.0 0.00 0.00 0.00 49 1011.3
20260502001537 59 150 0.0 1.0 0.00 0.00 0.00 50 1011.2
20260502000047 59 150 0.0 0.0 0.00 0.00 0.00 50 1010.9
20260501234508 59 198 0.0 0.0 0.00 0.00 0.00 50 1010.6
20260501233004 60 198 0.0 0.0 0.00 0.00 0.00 49 1010.4
20260501231504 60 198 0.0 0.0 0.00 0.00 0.00 47 1010.4
20260501230031 60 198 0.0 0.0 0.00 0.00 0.00 47 1010.6
20260501224514 60 198 0.0 0.0 0.00 0.00 0.00 48 1010.7